TimeEST,TemperatureF,Dew PointF,Humidity,Sea Level PressureIn,VisibilityMPH,Wind Direction,Wind SpeedMPH,Gust SpeedMPH,PrecipitationIn,Events,Conditions,WindDirDegrees,DateUTC
12:15 AM,48.2,48.2,100,29.36,7.0,NW,4.6,-,0.05,Rain,Rain,310,2012-12-21 05:15:00
12:35 AM,46.4,46.4,100,29.35,10.0,Calm,Calm,-,0.10,Rain,Rain,0,2012-12-21 05:35:00
12:55 AM,44.6,44.6,100,29.34,10.0,NNW,8.1,-,0.13,Rain,Heavy Rain,330,2012-12-21 05:55:00
1:15 AM,44.6,44.6,100,29.36,4.0,WNW,6.9,17.3,0.06,Rain,Heavy Rain,290,2012-12-21 06:15:00
1:35 AM,46.4,46.4,100,29.34,10.0,Calm,Calm,-,0.09,Rain,Light Rain,0,2012-12-21 06:35:00
1:55 AM,46.4,46.4,100,29.34,10.0,Calm,Calm,-,0.09,Rain,Light Rain,0,2012-12-21 06:55:00
2:15 AM,46.4,46.4,100,29.34,10.0,West,3.5,-,N/A,,Mostly Cloudy,270,2012-12-21 07:15:00
2:35 AM,44.6,44.6,100,29.32,10.0,WSW,3.5,-,N/A,,Mostly Cloudy,240,2012-12-21 07:35:00
2:55 AM,44.6,44.6,100,29.34,10.0,Calm,Calm,-,N/A,,Mostly Cloudy,0,2012-12-21 07:55:00
3:15 AM,44.6,44.6,100,29.34,7.0,WSW,4.6,-,N/A,,Overcast,250,2012-12-21 08:15:00
3:35 AM,46.4,46.4,100,29.34,7.0,West,4.6,-,N/A,,Overcast,270,2012-12-21 08:35:00
3:55 AM,46.4,46.4,100,29.34,10.0,West,4.6,-,N/A,,Mostly Cloudy,280,2012-12-21 08:55:00
4:15 AM,46.4,46.4,100,29.34,10.0,NNW,3.5,-,N/A,,Overcast,340,2012-12-21 09:15:00
4:35 AM,46.4,44.6,93,29.34,10.0,WNW,4.6,-,N/A,,Overcast,300,2012-12-21 09:35:00
4:55 AM,46.4,42.8,87,29.34,10.0,NW,4.6,-,N/A,,Overcast,320,2012-12-21 09:55:00
5:15 AM,46.4,37.4,71,29.34,10.0,WNW,6.9,-,N/A,,Overcast,300,2012-12-21 10:15:00
5:35 AM,46.4,35.6,66,29.35,10.0,WNW,11.5,-,N/A,,Overcast,300,2012-12-21 10:35:00
5:55 AM,46.4,33.8,62,29.35,10.0,WNW,5.8,-,N/A,,Overcast,300,2012-12-21 10:55:00
7:15 AM,42.8,30.2,61,29.39,10.0,West,9.2,-,N/A,,Mostly Cloudy,270,2012-12-21 12:15:00
7:35 AM,41.0,30.2,65,29.41,10.0,West,6.9,-,N/A,,Scattered Clouds,270,2012-12-21 12:35:00
7:55 AM,41.0,28.4,61,29.41,10.0,West,4.6,-,N/A,,Overcast,260,2012-12-21 12:55:00
8:15 AM,42.8,28.4,57,29.41,10.0,West,8.1,-,N/A,,Overcast,270,2012-12-21 13:15:00
8:35 AM,42.8,26.6,53,29.42,10.0,West,10.4,18.4,N/A,,Overcast,270,2012-12-21 13:35:00
8:55 AM,42.8,26.6,53,29.43,10.0,West,12.7,-,N/A,,Overcast,270,2012-12-21 13:55:00
9:15 AM,42.8,26.6,53,29.44,10.0,West,8.1,-,N/A,,Overcast,270,2012-12-21 14:15:00
9:35 AM,42.8,26.6,53,29.44,10.0,West,12.7,-,N/A,,Overcast,260,2012-12-21 14:35:00
9:55 AM,42.8,24.8,49,29.45,10.0,West,15.0,24.2,N/A,,Overcast,260,2012-12-21 14:55:00
10:15 AM,42.8,24.8,49,29.45,10.0,West,19.6,25.3,N/A,,Mostly Cloudy,270,2012-12-21 15:15:00
10:35 AM,44.6,24.8,46,29.46,10.0,West,19.6,24.2,N/A,,Scattered Clouds,260,2012-12-21 15:35:00
10:55 AM,44.6,24.8,46,29.45,10.0,West,10.4,18.4,N/A,,Mostly Cloudy,280,2012-12-21 15:55:00
11:15 AM,44.6,24.8,46,29.45,10.0,WSW,12.7,-,N/A,,Overcast,240,2012-12-21 16:15:00
11:35 AM,44.6,24.8,46,29.45,10.0,WSW,15.0,21.9,N/A,,Overcast,240,2012-12-21 16:35:00
11:55 AM,44.6,24.8,46,29.45,10.0,West,11.5,-,N/A,,Overcast,260,2012-12-21 16:55:00
12:15 PM,42.8,23.0,46,29.45,10.0,West,15.0,20.7,N/A,,Overcast,260,2012-12-21 17:15:00
12:35 PM,42.8,23.0,46,29.45,10.0,West,13.8,25.3,N/A,,Overcast,270,2012-12-21 17:35:00
12:55 PM,42.8,23.0,46,29.45,10.0,West,12.7,20.7,N/A,,Overcast,270,2012-12-21 17:55:00
1:15 PM,42.8,21.2,42,29.45,10.0,West,16.1,21.9,N/A,,Mostly Cloudy,280,2012-12-21 18:15:00
1:35 PM,42.8,21.2,42,29.45,10.0,West,13.8,26.5,N/A,,Scattered Clouds,270,2012-12-21 18:35:00
1:55 PM,42.8,23.0,46,29.45,10.0,West,9.2,-,N/A,,Mostly Cloudy,260,2012-12-21 18:55:00
2:15 PM,42.8,23.0,46,29.45,10.0,West,13.8,18.4,N/A,,Overcast,260,2012-12-21 19:15:00
2:35 PM,42.8,23.0,46,29.46,10.0,West,12.7,18.4,N/A,,Overcast,260,2012-12-21 19:35:00
2:55 PM,42.8,24.8,49,29.47,10.0,WSW,9.2,-,N/A,,Overcast,250,2012-12-21 19:55:00
3:15 PM,42.8,21.2,42,29.47,10.0,West,12.7,17.3,N/A,,Overcast,270,2012-12-21 20:15:00
3:35 PM,42.8,21.2,42,29.48,10.0,West,9.2,-,N/A,,Overcast,270,2012-12-21 20:35:00
3:55 PM,41.0,21.2,45,29.49,10.0,WNW,15.0,25.3,N/A,,Mostly Cloudy,290,2012-12-21 20:55:00
4:15 PM,39.2,24.8,56,29.50,10.0,West,8.1,-,N/A,,Overcast,280,2012-12-21 21:15:00
4:35 PM,39.2,24.8,56,29.50,10.0,WSW,5.8,-,N/A,,Overcast,250,2012-12-21 21:35:00
4:55 PM,39.2,24.8,56,29.51,10.0,West,6.9,-,N/A,,Overcast,260,2012-12-21 21:55:00
5:15 PM,39.2,21.2,49,29.52,10.0,West,8.1,-,N/A,,Overcast,260,2012-12-21 22:15:00
5:35 PM,39.2,21.2,49,29.52,10.0,West,10.4,-,N/A,,Overcast,260,2012-12-21 22:35:00
5:55 PM,39.2,21.2,49,29.53,10.0,West,6.9,-,N/A,,Overcast,270,2012-12-21 22:55:00
6:15 PM,39.2,21.2,49,29.53,10.0,West,9.2,-,N/A,,Overcast,260,2012-12-21 23:15:00
6:35 PM,39.2,21.2,49,29.54,10.0,West,12.7,16.1,N/A,,Mostly Cloudy,280,2012-12-21 23:35:00
6:55 PM,39.2,21.2,49,29.55,10.0,WSW,6.9,-,N/A,,Mostly Cloudy,250,2012-12-21 23:55:00
7:15 PM,39.2,19.4,45,29.56,10.0,West,9.2,17.3,N/A,,Mostly Cloudy,270,2012-12-22 00:15:00
7:35 PM,39.2,21.2,49,29.56,10.0,West,11.5,18.4,N/A,,Scattered Clouds,270,2012-12-22 00:35:00
7:55 PM,39.2,19.4,45,29.57,10.0,West,11.5,18.4,N/A,,Clear,260,2012-12-22 00:55:00
8:15 PM,39.2,21.2,49,29.57,10.0,West,9.2,-,N/A,,Scattered Clouds,270,2012-12-22 01:15:00
8:35 PM,37.4,21.2,52,29.57,10.0,West,8.1,16.1,N/A,,Scattered Clouds,260,2012-12-22 01:35:00
8:55 PM,37.4,19.4,48,29.58,10.0,West,6.9,-,N/A,,Scattered Clouds,270,2012-12-22 01:55:00
9:15 PM,37.4,19.4,48,29.58,10.0,West,9.2,-,N/A,,Clear,270,2012-12-22 02:15:00
9:35 PM,37.4,19.4,48,29.59,10.0,West,5.8,-,N/A,,Clear,260,2012-12-22 02:35:00
9:55 PM,37.4,19.4,48,29.59,10.0,West,6.9,-,N/A,,Scattered Clouds,260,2012-12-22 02:55:00
10:15 PM,39.2,19.4,45,29.60,10.0,WNW,6.9,-,N/A,,Scattered Clouds,290,2012-12-22 03:15:00
10:35 PM,39.2,19.4,45,29.61,10.0,West,8.1,19.6,N/A,,Mostly Cloudy,280,2012-12-22 03:35:00
10:55 PM,39.2,19.4,45,29.61,10.0,WNW,12.7,24.2,N/A,,Scattered Clouds,290,2012-12-22 03:55:00
11:15 PM,39.2,19.4,45,29.61,10.0,WNW,11.5,18.4,N/A,,Clear,290,2012-12-22 04:15:00
11:35 PM,39.2,19.4,45,29.61,10.0,WNW,10.4,-,N/A,,Clear,290,2012-12-22 04:35:00
11:55 PM,39.2,19.4,45,29.62,10.0,WNW,10.4,16.1,N/A,,Clear,290,2012-12-22 04:55:00